Regional Weather Roundup
Issued by NWS Grand Forks, ND

Home | Current Version | Previous Version | Graphics & Text | Print | Product List | Glossary On
Versions: 1 2 3 4 5 6 7 8 9 10 11 12 13 14 15 16 17 18 19 20 21 22 23 24 25 26 27 28 29 30 31 32 33 34 35 36 37 38 39 40 41 42 43 44 45 46 47 48 49 50
000
ASUS43 KFGF 221831
RWRFGF
PRAIRIE TO PINES  WEATHER ROUNDUP
NATIONAL WEATHER SERVICE EASTERN NORTH DAKOTA/GRAND FORKS ND
1200 PM CST MON JAN 22 2018

 **SATELLITE DATA USED TO AUGMENT SKY COVER AT AUTOMATED STATIONS**
 *****  WEATHER ACROSS EASTERN NORTH DAKOTA  *****

CITY           SKY/WX    TMP DP  RH WIND       PRES   REMARKS
GRAND FORKS    CLOUDY    26  22  84 N12       30.06F WCI  16
6HR MIN TEMP:  23; 6HR MAX TEMP:  26;

GRAND FRKS AFB CLOUDY    25  20  83 NE12      30.06F WCI  14
DEVILS LAKE    CLOUDY    22  20  92 E8        30.07F WCI  12
6HR MIN TEMP:  22; 6HR MAX TEMP:  22;

FARGO          CLOUDY    27  24  89 N16       29.98F WCI  15
WAHPETON ARPT  CLOUDY    28  23  80 N14       29.93F WCI  17
$$

 ***** WEATHER ACROSS CENTRAL AND WESTERN NORTH DAKOTA  *****

CITY           SKY/WX    TMP DP  RH WIND       PRES   REMARKS
BISMARCK       CLOUDY    23  20  88 W5        30.05F FOG     WCI  17
6HR MIN TEMP:  18; 6HR MAX TEMP:  22;

MINOT          FOG       17  15  92 S8        30.05F VSB 1/4 WCI   7
6HR MIN TEMP:   7; 6HR MAX TEMP:  17; 6HR PCP: TRACE;

JAMESTOWN      CLOUDY    22  21  96 N17       30.01F WCI   8
6HR MIN TEMP:  22; 6HR MAX TEMP:  22;

MINOT AFB      CLOUDY    18  16  93 S6        30.04F FOG     WCI   9
GARRISON         N/A     12  10  92 SE5       30.04S WCI   4
WILLISTON      FAIR      17  14  88 SW5       30.02S WCI  10
6HR MIN TEMP:   2; 6HR MAX TEMP:  17;

DICKINSON      FAIR      27  18  69 NW8       29.97F WCI  19
6HR MIN TEMP:  10; 6HR MAX TEMP:  27;

HETTINGER      FAIR      33  21  61 NW15      29.99F WCI  23
6HR MIN TEMP:  10; 6HR MAX TEMP:  33;

$$

 *****  OTHER AIRPORT OBSERVATIONS IN OUR AREA  *****

CITY           SKY/WX    TMP DP  RH WIND       PRES   REMARKS
WALHALLA       FAIR      23  23 100 N7        30.11F WCI  15
GRAFTON AIRPOR NOT AVBL
VALLEY CITY AR NOT AVBL
CANDO          CLOUDY    23  25 100 E8        30.08F WCI  14
CAVALIER APRT    N/A     23  21  93 N6        30.10F WCI  16
GWINNER          N/A     25  25 100 N20G25    29.95F WCI  11
SHEYENNE NWR     N/A     25  24  98 NE16      29.95S WCI  12
ROLLA          CLOUDY    21  21 100 E7        30.05F WCI  13
 ***** THE ABOVE OBSERVATIONS ARE NON NWS ARE NOT QUALITY
       CONTROLLED AND MAY MIS-REPORT RAIN FOR SNOW...
$$

  *****  WEATHER ACROSS NORTHERN MINNESOTA  *****

CITY           SKY/WX    TMP DP  RH WIND       PRES   REMARKS
FLAG ISLAND    CLOUDY    19  16  86 N9        30.07F WCI   9
WARROAD        CLOUDY    21  18  86 N10       30.06F WCI  10
ROSEAU         CLOUDY    25  19  80 NE9       30.06F WCI  15
HALLOCK        CLOUDY    27  21  80 NE8       30.08F WCI  18
THF RVR FALLS  CLOUDY    25  22  88 NE13      30.03F WCI  14
6HR MIN TEMP:  23; 6HR MAX TEMP:  25;

BAUDETTE       CLOUDY    22  19  89 NE9       30.04F WCI  12
6HR MIN TEMP:  21; 6HR MAX TEMP:  23;

WASKISH        CLOUDY    23  21  93 NE9       30.00F WCI  13
CROOKSTON      FAIR      27  23  86 NE8       30.04F WCI  18
STEPHEN NDAWN    N/A     27  21  80 NE12        N/A  WCI  16
GREENBUSH NDAW   N/A     23  21  93 NE10        N/A  WCI  12
$$
  *****  WEATHER ACROSS CENTRAL AND WEST MINNESOTA  *****

CITY           SKY/WX    TMP DP  RH WIND       PRES   REMARKS
FOSSTON        CLOUDY    25  21  86 NE16G22   29.98F WCI  12
BEMIDJI        CLOUDY    24  22  92 NE10      29.96F WCI  14
6HR MIN TEMP:  24; 6HR MAX TEMP:  25;

PARK RAPIDS    CLOUDY    26  22  84 NE10G22   29.91F WCI  16
6HR MIN TEMP:  25; 6HR MAX TEMP:  26;

ELBOW LAKE     CLOUDY    27  24  90 E16G24    29.88F FOG     WCI  15
6HR MIN TEMP:  25; 6HR MAX TEMP:  27;

WADENA         CLOUDY    27  23  86 NE13      29.88F WCI  16
DETROIT LAKES  CLOUDY    28  27  93 NE12      29.93F WCI  18
MOORHEAD       CLOUDY    27  23  86 N18       29.97F WCI  13
FERGUS FALLS   CLOUDY    27  25  93 NE15G22   29.90F WCI  15
MORRIS MN      CLOUDY    28  25  86 N18G28    29.84F WCI  16
STAPLES        CLOUDY    27  21  80 NE13G20   29.88F WCI  16
$$
  *****  WEATHER ELSEWHERE ACROSS MINNESOTA  *****

CITY           SKY/WX    TMP DP  RH WIND       PRES   REMARKS
DULUTH         CLOUDY    23  21  92 E13       29.89S WCI  11
6HR MIN TEMP:  22; 6HR MAX TEMP:  24; 6HR PCP: TRACE;

INTRNTL FALLS  CLOUDY    20  16  84 N8        30.02F WCI  10
6HR MIN TEMP:  19; 6HR MAX TEMP:  20;

ELY            CLOUDY    16  16 100 N6        29.97F WCI   7
CLOQUET        CLOUDY    23  19  86 NE13G24   29.89F WCI  11
WHEATON        CLOUDY    27  23  86 N15       29.92F WCI  15
BRAINERD       CLOUDY    29  23  78 NE17G23   29.88F WCI  17
6HR MIN TEMP:  26; 6HR MAX TEMP:  29;

HIBBING        CLOUDY    23  19  85 N9        29.93F WCI  13
6HR MIN TEMP:  22; 6HR MAX TEMP:  24;

ALEXANDRIA     CLOUDY    27  23  85 N20G28    29.84F WCI  13
6HR MIN TEMP:  26; 6HR MAX TEMP:  27;

SAINT CLOUD    CLOUDY    29  25  85 NE15G23   29.80F WCI  18
6HR MIN TEMP:  29; 6HR MAX TEMP:  29;

MINNEAPOLIS    HVY SNOW  30  29  96 N23G31    29.68F VSB 1/4 WCI  17
6HR MIN TEMP:  30; 6HR MAX TEMP:  33; 6HR PCP:  0.05;

$$

  *****  WEATHER ACROSS SOUTH DAKOTA  *****

CITY           SKY/WX    TMP DP  RH WIND       PRES   REMARKS
SIOUX FALLS    LGT SNOW  28  25  88 N23       29.75R BLWGSNOWWCI  14
6HR MIN TEMP:  26; 6HR MAX TEMP:  28; 6HR PCP: TRACE;

BROOKINGS      FLURRIES  25  23  93 N23G33    29.76S WCI  10
WATERTOWN      CLOUDY    24  23  96 N23G36    29.81F FOG     WCI   9
6HR MIN TEMP:  22; 6HR MAX TEMP:  24;

HURON          CLOUDY    22  22 100 N23G33    29.88F FOG     WCI   6
6HR MIN TEMP:  21; 6HR MAX TEMP:  22; 6HR PCP: TRACE;

SISSETON         N/A     27  24  89 N21       29.91F WCI  13
ABERDEEN       CLOUDY    23  21  92 N21G28    29.96S WCI   8
6HR MIN TEMP:  22; 6HR MAX TEMP:  23;

MITCHELL       MIX PCPN  24  22  91 N23G31    29.86S FOG     WCI   9
PIERRE         CLOUDY    23  23 100 NW20      29.93F FOG     WCI   8
6HR MIN TEMP:  21; 6HR MAX TEMP:  23;

MOBRIDGE       CLOUDY    24  20  84 NW15      29.97F FOG     WCI  11
RAPID CITY     FAIR      38  17  42 N18G25    29.97F
6HR MIN TEMP:  16; 6HR MAX TEMP:  38;

$$

  *****  SOME WEATHER IN NEARBY STATES *****

CITY           SKY/WX    TMP DP  RH WIND       PRES   REMARKS
GLASGOW MT     FAIR      15  12  88 SE6       29.99R WCI   6
6HR MIN TEMP:   3; 6HR MAX TEMP:  15;

GREAT FALLS MT FAIR      37  20  50 SW21      30.02R
6HR MIN TEMP:  32; 6HR MAX TEMP:  37;

CHEYENNE WY    FAIR      26  10  50 W28G35    29.99R WCI  10
6HR MIN TEMP:  16; 6HR MAX TEMP:  26;

SCOTTSBLUFF NE FAIR      25  13  60 NW15      30.01F WCI  13
6HR MIN TEMP:  16; 6HR MAX TEMP:  25;

OMAHA NE       LGT SNOW  33  32  96 N23G32    29.45S VSB 3/4 WCI  21
6HR MIN TEMP:  33; 6HR MAX TEMP:  36; 6HR PCP:  0.22;

DES MOINES IA  CLOUDY    46  42  86 S14       29.37F
6HR MIN TEMP:  39; 6HR MAX TEMP:  47; 6HR PCP:  0.02;

DAVENPORT IA   FAIR      57  48  72 S12G22    29.43F
6HR MIN TEMP:  42; 6HR MAX TEMP:  57;

CHICAGO IL     DRIZZLE   51  48  89 S18G26    29.50F FOG
6HR MIN TEMP:  47; 6HR MAX TEMP:  51; 6HR PCP:  0.40;

EAU CLAIRE WI  HVY SNOW  31  31 100 NE20G29   29.61F VSB 1/4 WCI  19
6HR MIN TEMP:  31; 6HR MAX TEMP:  35; 6HR PCP:  0.15;

LA CROSSE WI   LGT RAIN  37  34  89 NE13G20   29.50F FOG
6HR MIN TEMP:  37; 6HR MAX TEMP:  38; 6HR PCP:  0.38;

$$

  *****  SOME NATIONAL WEATHER *****

CITY           SKY/WX    TMP DP  RH WIND       PRES   REMARKS
LA GUARDIA NY  CLOUDY    43  38  82 NE8       30.16F
6HR MIN TEMP:  38; 6HR MAX TEMP:  43;

RALEIGH NC     CLOUDY    62  42  47 S10       30.15F
6HR MIN TEMP:  38; 6HR MAX TEMP:  62;

ATLANTA GA     CLOUDY    58  56  93 S10       30.05F FOG
6HR MIN TEMP:  47; 6HR MAX TEMP:  58;

NEW ORLEANS LA CLOUDY    72  65  78 NW10      29.91F
6HR MIN TEMP:  62; 6HR MAX TEMP:  75; 6HR PCP: TRACE;

OKLAHOMA CITY  CLOUDY    43  25  49 NW31G43   29.89R
6HR MIN TEMP:  35; 6HR MAX TEMP:  45;

ALBUQUERQUE NM FAIR      33  10  38 NW12      30.26F WCI  24
6HR MIN TEMP:  24; 6HR MAX TEMP:  33;

SALT LAKE CITY PTSUNNY   30  19  63 S14       30.32R WCI  19
6HR MIN TEMP:  24; 6HR MAX TEMP:  30;

LOS ANGELES CA FAIR


USA.gov is the U.S. government's official web portal to all federal, state and local government web resources and services.